Notices

What's New in latest Release from April 7th, 2021:

- Updated Glossary, including Speed of Maximum Gust, and Total Hourly Precipitation

- Updated national and regional climate services offices contacts and prices information

- Addition of station inventory lists for 1981-2010, 1971-2000, and 1961-1990 Normals.

If you haven't already, please take our survey and provide feedback about our website: https://eccc.sondage-survey.ca/f/LanguageSelection.aspx?s=442ca660-fcf1-47c0-95a9-59707d6fd709

Hourly Data Report for January 15, 2017

TORONTO CITY
ONTARIO

43°40'00.000" N
79°24'00.000" W
112.50 m
6158355
71508
XTO

Download Data

Hourly Data (January 2017)
Hourly Data Report for January 15, 2017
TIME
LST
Temp Definition
°C
Dew Point Definition
°C
Rel Hum Definition
%
Precip. Amount Definition
mm

Wind Dir Definition
10's deg

Wind Spd Definition
km/h
Visibility Definition
km
Stn Press Definition
kPa
Hmdx Definition


Wind Chill Definition


Weather Definition


00:00 -4.0 -7.4 77 0.0 LegendMM LegendMM   101.38     LegendNANA
01:00 -4.4 -7.6 78 0.0 LegendMM LegendMM   101.37     LegendNANA
02:00 -3.7 -7.4 76 0.0 LegendMM LegendMM   101.33     LegendNANA
03:00 -3.8 -7.5 76 0.0 LegendMM LegendMM   101.37     LegendNANA
04:00 -4.0 -7.5 76 0.0 LegendMM LegendMM   101.39     LegendNANA
05:00 -3.9 -7.3 77 0.0 LegendMM LegendMM   101.40     LegendNANA
06:00 -4.0 -7.3 78 0.0 LegendMM LegendMM   101.43     LegendNANA
07:00 -3.4 -6.6 78 0.0 LegendMM LegendMM   101.49     LegendNANA
08:00 -3.1 -6.7 76 0.0 LegendMM LegendMM   101.55     LegendNANA
09:00 -2.4 -6.4 74 0.0 LegendMM LegendMM   101.59     LegendNANA
10:00 -1.6 -5.9 73 0.0 LegendMM LegendMM   101.64     LegendNANA
11:00 -0.4 -5.9 67 0.0 LegendMM LegendMM   101.62     LegendNANA
12:00 -0.2 -7.4 58 0.0 LegendMM LegendMM   101.55     LegendNANA
13:00 0.3 -7.0 58 0.0 LegendMM LegendMM   101.49     LegendNANA
14:00 0.1 -7.7 56 0.0 LegendMM LegendMM   101.46     LegendNANA
15:00 0.3 -6.5 60 0.0 LegendMM LegendMM   101.47     LegendNANA
16:00 0.4 -6.4 61 0.0 LegendMM LegendMM   101.43     LegendNANA
17:00 0.3 -6.8 59 0.0 LegendMM LegendMM   101.45     LegendNANA
18:00 0.4 -6.8 59 0.0 LegendMM LegendMM   101.47     LegendNANA
19:00 -0.5 -6.7 62 0.0 LegendMM LegendMM   101.44     LegendNANA
20:00 -0.4 -6.5 63 0.0 LegendMM LegendMM   101.43     LegendNANA
21:00 -0.6 -6.0 67 0.0 LegendMM LegendMM   101.41     LegendNANA
22:00 -0.8 -4.3 77 0.0 LegendMM LegendMM   101.41     LegendNANA
23:00 -1.6 -5.2 77 0.0 LegendMM LegendMM   101.41     LegendNANA

Notes on Data Quality.

Legend

  • E = Estimated
  • M = Missing
  • NA = Not Available*
  • [empty] = Indicates an unobserved value
Date modified: